Location: ??????
(56.0120°N, 39.1740°E)
Time: 06:55:33
(UTC+00:00)

Cosmos 2084 Rocket - Pass Details

Date: 14 April 2026
Orbit: 531 x 579 km, 62.8° (Epoch: 13 May)

Event Time Altitude Azimuth Distance (km) Brightness Sun altitude
Exits shadow 19:50:41 39° 233° (SW) 832 4.1 -21.6°
Maximum altitude 19:52:09 90° 178° (S) 556 3.2 -21.7°
Drops below altitude 10° 19:56:19 10° 54° (NE) 1,847 6.1 -21.9°
Sets 19:58:34 0° 55° (NE) 2,753 7.1 -22.0°
